Total_Precipitation_Accumulation
2.20 2.62 2.89 3.39 3.98 4.43 4.85 5.07 5.16 5.07 4.92 4.56 4.27 4.03 3.79 3.56 3.28 3.08 2.99 2.95 2.89 3.11 3.60 3.35 3.64 3.57 3.63 3.70 3.73 3.90 3.81 3.52 3.70 3.81 3.39 2.75 2.28 2.26 2.04 2.01 2.08 2.13 2.19
2.11 2.60 2.90 3.11 3.52 4.04 4.52 4.85 5.06 4.98 4.60 4.26 4.12 4.04 4.00 3.60 3.32 3.30 3.45 3.26 3.26 3.31 3.35 3.60 3.57 3.66 3.83 3.80 3.76 3.90 3.68 3.32 3.60 4.00 4.10 3.35 2.90 2.37 1.80 1.95 2.13 2.39 2.51
2.37 2.64 2.84 2.97 3.21 3.60 3.92 4.02 4.22 4.21 4.06 4.11 4.14 4.12 4.16 3.76 3.70 3.73 3.75 3.52 3.52 3.54 3.56 3.54 3.50 3.55 3.36 3.46 3.56 3.58 3.60 3.54 3.44 3.76 4.19 3.75 3.26 2.78 2.10 1.96 2.06 2.37 2.67
2.08 2.28 2.54 2.81 2.96 3.19 3.51 3.73 3.80 3.76 3.69 3.82 3.89 3.81 3.64 3.53 3.72 4.00 3.93 3.66 3.45 3.33 3.17 3.11 3.30 3.35 3.13 3.23 2.89 3.08 3.29 3.31 3.17 3.46 3.54 3.55 3.56 3.47 2.75 2.26 2.07 2.19 2.41
1.81 1.95 2.15 2.45 2.56 2.87 3.14 3.35 3.60 3.70 3.64 3.73 3.74 3.79 3.63 3.62 3.68 3.69 3.74 3.55 3.37 3.06 2.73 2.77 3.02 3.01 2.94 2.87 2.77 2.99 2.86 2.81 2.91 3.16 3.35 3.42 3.53 3.39 3.18 2.69 2.64 2.58 2.42
1.59 1.82 2.01 2.28 2.44 2.55 2.68 2.79 3.00 3.27 3.45 3.50 3.50 3.61 3.56 3.50 3.45 3.44 3.36 3.14 2.98 2.78 2.48 2.39 2.62 2.77 2.84 2.83 2.81 2.91 2.82 2.88 3.00 2.99 3.04 3.29 3.33 3.31 3.40 2.89 2.72 2.76 2.49
1.33 1.55 1.71 1.89 2.10 2.20 2.30 2.45 2.74 3.09 3.17 3.14 3.12 3.25 3.31 3.31 3.25 3.23 3.09 2.87 2.65 2.43 2.38 2.40 2.57 2.63 2.71 2.60 2.69 2.77 2.78 2.94 3.02 2.93 2.85 2.97 3.01 3.14 3.42 3.34 2.97 2.81 2.60
1.10 1.24 1.51 1.83 1.99 1.96 2.03 2.19 2.50 2.77 2.80 2.73 2.88 3.15 3.23 3.26 3.18 3.23 2.91 2.66 2.45 2.41 2.52 2.52 2.40 2.37 2.47 2.35 2.66 2.60 2.64 2.89 2.98 2.69 2.97 3.00 2.98 3.27 3.52 3.63 3.73 3.33 2.97
1.11 1.18 1.27 1.49 1.61 1.66 1.74 1.91 2.33 2.61 2.71 2.79 2.93 3.07 3.18 3.13 3.09 3.01 2.73 2.48 2.50 2.46 2.61 2.59 2.52 2.41 2.47 2.60 2.88 2.80 2.73 2.96 2.94 2.95 3.18 3.13 3.04 3.17 3.32 3.56 3.84 3.93 3.48
0.94 1.00 1.04 1.15 1.26 1.43 1.71 1.91 2.09 2.42 2.54 2.64 2.83 2.85 3.08 2.98 2.81 2.78 2.56 2.33 2.24 2.34 2.58 2.74 2.64 2.49 2.51 2.68 2.88 2.84 2.98 3.16 3.20 3.29 3.39 3.34 3.14 3.23 3.28 3.35 3.60 3.95 3.86
0.84 0.87 0.99 1.12 1.22 1.37 1.60 1.74 1.79 2.02 2.23 2.37 2.58 2.61 2.63 2.70 2.75 2.58 2.32 2.26 2.31 2.43 2.50 2.61 2.60 2.51 2.54 2.67 2.74 2.70 3.03 3.18 3.21 3.19 3.20 3.17 3.33 3.32 3.21 3.31 3.49 3.79 3.88
0.94 0.97 1.11 1.23 1.28 1.43 1.50 1.55 1.63 1.84 2.07 2.31 2.57 2.72 2.73 2.69 2.68 2.53 2.34 2.34 2.42 2.44 2.39 2.45 2.45 2.32 2.36 2.58 2.59 2.65 3.01 3.23 3.05 3.03 3.05 2.81 2.92 3.04 2.87 3.01 3.09 3.24 3.50
1.01 1.08 1.18 1.22 1.19 1.29 1.45 1.50 1.53 1.73 1.99 2.25 2.57 2.79 2.87 2.85 2.75 2.50 2.28 2.19 2.13 2.17 2.18 2.19 2.22 2.29 2.49 2.57 2.54 2.59 2.62 2.67 2.72 2.94 3.06 2.86 2.85 2.73 2.74 2.79 2.76 2.84 2.95
1.03 1.12 1.12 1.25 1.22 1.24 1.39 1.44 1.53 1.63 1.91 2.17 2.38 2.57 2.51 2.42 2.41 2.27 2.10 1.97 1.94 1.97 2.04 2.14 2.24 2.33 2.42 2.44 2.54 2.61 2.51 2.48 2.54 2.71 2.81 2.78 2.69 2.58 2.69 2.61 2.64 2.73 2.91
0.93 0.96 0.96 1.03 1.07 1.21 1.37 1.31 1.36 1.43 1.61 1.81 1.91 2.08 2.09 2.05 2.03 2.09 2.12 2.09 2.11 2.04 2.13 2.21 2.24 2.25 2.21 2.13 2.23 2.32 2.37 2.53 2.46 2.36 2.31 2.28 2.32 2.30 2.36 2.20 2.41 2.69 2.85
0.69 0.66 0.83 0.92 0.91 0.95 1.07 1.06 1.07 1.24 1.42 1.52 1.63 1.89 2.02 2.04 2.04 2.11 2.25 2.29 2.24 2.20 2.21 2.16 2.21 2.17 1.87 2.09 2.17 2.18 2.29 2.43 2.42 2.27 2.10 1.97 1.94 1.88 1.91 1.89 2.01 2.32 2.53
0.70 0.66 0.78 0.97 1.04 0.99 0.96 1.07 1.18 1.32 1.43 1.55 1.68 1.89 2.01 2.12 2.19 2.21 2.35 2.28 2.29 2.34 2.27 2.17 2.16 2.17 2.24 2.33 2.13 1.98 1.94 2.05 2.10 2.06 2.01 1.74 1.65 1.85 1.80 1.87 1.85 1.87 2.04
0.79 0.80 0.84 0.83 0.88 0.91 0.96 1.10 1.38 1.64 1.69 1.80 1.97 2.08 2.22 2.18 2.17 2.19 2.24 2.34 2.44 2.48 2.48 2.40 2.31 2.29 2.27 2.25 2.03 2.00 1.89 1.90 1.92 1.94 1.97 1.93 1.85 1.91 2.04 2.02 1.92 1.79 1.77
0.78 0.87 0.93 0.91 0.96 1.00 1.03 1.20 1.40 1.69 1.88 1.91 2.02 2.17 2.28 2.32 2.34 2.34 2.33 2.45 2.58 2.55 2.49 2.43 2.45 2.40 2.41 2.46 2.24 2.24 2.05 2.06 2.08 2.13 2.15 2.10 1.98 2.14 2.09 1.97 1.93 1.88 1.87
0.87 0.90 0.96 1.07 1.24 1.30 1.31 1.42 1.52 1.65 1.82 1.89 2.01 2.19 2.42 2.48 2.49 2.64 2.75 2.72 2.70 2.58 2.59 2.59 2.55 2.54 2.55 2.77 2.58 2.43 2.24 2.24 2.25 2.37 2.38 2.43 2.26 2.23 2.15 1.98 1.98 1.98 2.01
0.97 0.93 1.02 1.18 1.42 1.56 1.59 1.67 1.79 1.88 1.88 1.93 2.07 2.26 2.44 2.54 2.61 2.80 2.89 2.88 2.83 2.84 2.79 2.70 2.73 2.71 2.67 2.84 2.59 2.40 2.24 2.30 2.47 2.49 2.41 2.45 2.48 2.27 2.28 2.22 2.10 2.10 2.13
1.07 1.08 1.16 1.36 1.59 1.80 1.76 1.82 1.88 1.89 1.91 1.90 2.05 2.18 2.33 2.34 2.42 2.71 2.81 2.93 2.98 2.93 2.84 2.81 2.67 2.67 2.62 2.52 2.37 2.27 2.24 2.34 2.48 2.57 2.53 2.49 2.47 2.24 2.17 2.02 1.99 2.07 1.96
1.07 1.13 1.22 1.45 1.72 1.92 1.97 2.02 1.93 1.98 2.02 2.04 2.15 2.28 2.36 2.40 2.50 2.61 2.66 2.76 2.83 2.79 2.67 2.69 2.64 2.57 2.57 2.55 2.30 2.07 2.03 2.10 2.12 2.28 2.47 2.41 2.31 2.10 1.89 1.85 1.83 1.74 1.63
1.04 1.12 1.25 1.39 1.54 1.75 1.96 2.08 2.09 2.11 2.11 2.17 2.21 2.30 2.41 2.39 2.46 2.57 2.68 2.79 2.86 2.94 2.85 2.71 2.58 2.54 2.50 2.39 2.23 2.04 1.93 2.05 2.15 2.24 2.32 2.21 2.11 1.92 1.75 1.67 1.59 1.55 1.64
1.06 1.13 1.27 1.37 1.47 1.56 1.69 1.77 1.90 1.99 2.05 2.14 2.20 2.22 2.24 2.32 2.43 2.48 2.59 2.58 2.65 2.69 2.67 2.57 2.53 2.49 2.40 2.25 2.17 1.97 1.85 1.97 2.15 2.23 2.24 2.11 2.05 1.92 1.82 1.75 1.71 1.72 1.75
1.16 1.18 1.27 1.32 1.39 1.49 1.68 1.75 1.83 1.96 2.10 2.20 2.21 2.17 2.11 2.17 2.22 2.28 2.30 2.33 2.22 2.22 2.15 2.13 2.12 2.05 1.95 1.85 1.71 1.68 1.68 1.77 1.95 1.95 2.00 2.13 2.12 2.06 1.98 1.88 1.79 1.77 1.75